TimeCDT,TemperatureF,Dew PointF,Humidity,Sea Level PressureIn,VisibilityMPH,Wind Direction,Wind SpeedMPH,Gust SpeedMPH,PrecipitationIn,Events,Conditions,WindDirDegrees,DateUTC
12:53 AM,70.0,66.9,90,30.00,10.0,Calm,Calm,-,N/A,,Scattered Clouds,0,2013-07-03 05:53:00
1:53 AM,70.0,66.9,90,30.00,10.0,Calm,Calm,-,N/A,,Clear,0,2013-07-03 06:53:00
2:53 AM,69.1,66.9,93,30.00,9.0,Calm,Calm,-,N/A,,Partly Cloudy,0,2013-07-03 07:53:00
3:53 AM,70.0,66.9,90,29.99,10.0,NNE,4.6,-,N/A,,Clear,30,2013-07-03 08:53:00
4:53 AM,72.0,66.9,84,29.99,10.0,NE,3.5,-,N/A,,Clear,40,2013-07-03 09:53:00
5:53 AM,73.0,66.9,81,30.00,10.0,NE,3.5,-,N/A,,Mostly Cloudy,40,2013-07-03 10:53:00
6:53 AM,70.0,66.9,90,30.00,9.0,Calm,Calm,-,N/A,,Clear,0,2013-07-03 11:53:00
7:53 AM,78.1,68.0,71,30.01,10.0,Calm,Calm,-,N/A,,Clear,0,2013-07-03 12:53:00
8:53 AM,81.0,68.0,65,30.03,10.0,SE,3.5,-,N/A,,Clear,140,2013-07-03 13:53:00
9:53 AM,84.9,66.9,55,30.03,10.0,ENE,3.5,-,N/A,,Clear,60,2013-07-03 14:53:00
10:53 AM,86.0,64.0,48,30.03,10.0,Calm,Calm,-,N/A,,Clear,0,2013-07-03 15:53:00
11:53 AM,89.1,66.0,46,30.02,10.0,Variable,3.5,-,N/A,,Clear,0,2013-07-03 16:53:00
12:53 PM,91.0,64.0,41,30.01,10.0,NE,4.6,-,N/A,,Clear,50,2013-07-03 17:53:00
1:53 PM,91.9,60.1,34,29.98,10.0,East,8.1,-,N/A,,Clear,80,2013-07-03 18:53:00
2:53 PM,93.9,55.0,27,29.96,10.0,West,3.5,-,N/A,,Partly Cloudy,260,2013-07-03 19:53:00
3:53 PM,93.9,54.0,26,29.94,10.0,Calm,Calm,-,N/A,,Partly Cloudy,0,2013-07-03 20:53:00
4:53 PM,93.9,55.9,28,29.92,10.0,Calm,Calm,-,N/A,,Clear,0,2013-07-03 21:53:00
5:53 PM,90.0,62.1,39,29.91,10.0,ESE,12.7,19.6,N/A,,Mostly Cloudy,120,2013-07-03 22:53:00
6:53 PM,87.1,64.0,46,29.91,10.0,SSE,15.0,21.9,0.00,Rain,Light Rain,160,2013-07-03 23:53:00
7:53 PM,84.9,63.0,48,29.93,10.0,SSE,10.4,-,0.00,,Scattered Clouds,160,2013-07-04 00:53:00
8:53 PM,82.0,63.0,52,29.94,10.0,SSE,8.1,-,N/A,,Clear,160,2013-07-04 01:53:00
9:53 PM,78.1,64.0,62,29.95,10.0,SSE,5.8,-,N/A,,Clear,160,2013-07-04 02:53:00
10:53 PM,75.9,66.0,71,29.97,10.0,Calm,Calm,-,N/A,,Clear,0,2013-07-04 03:53:00
11:53 PM,75.0,66.9,76,29.97,10.0,Calm,Calm,-,N/A,,Clear,0,2013-07-04 04:53:00